OPS 9442 (DSCS 2-12) DEB, 59992

Orbit data source: Space-Track

OPS 9442 (DSCS 2-12) DEB, 59992 is space debris in GEO originally from a launch on Thu, 14 Dec 1978 UTC launched from the Air Force Eastern Test Range (AFETR). Debris objects in space refer to the collection of defunct objects orbiting the Earth. Examples of debris include non-operational satellites, rocket bodies, and fragments generated from explosions, collisions, or faulty payload assembly.

Loading next visibility...
Identifier
59992, 1978-113H
Orbit
GEO
Country
Flag of USUS
Related business
Manufacturer
Martin Marietta
Mission
Spacecraft
Bus & Motor
Unknown
Mass
Unknown
Launch date (UTC)
1978-12-14 (48 years ago)
Launch vehicle
Unknown
Launch site
Air Force Eastern Test Range (AFETR)
Object type
Payload
Rocket body
Debris
Shape & HBR
Unknown shape, 1.1 m
Radar Cross Section
RCS unknown

Expand to show TLE details & history
Last TLE update: 3 days ago

TLE from 3 days ago
0 OPS 9442 (DSCS 2-12) DEB
1 59992U 78113H   26170.50863345 -.00000028  00000-0  00000-0 0  9995
2 59992   8.3438 302.8983 0239260 107.1248 290.8473  0.98330143 58917
Epoch: 2026-06-19T12:12Z
TLE epoch observation values (Epoch: 2026-06-19T12:12:25.930Z)
Latitude
4.82215°
Longitude
-112.86587°
Altitude
36,000.674 km
Speed
3.079 km/s
True Right ascension
22h 31m 54s
True Declination
4° 49' 02"
Sunlit
Object was in daylight at epoch
Visualization orbit readout
Latitude
Unknown
Longitude
Unknown
Altitude
Unknown
Speed
Unknown
Apparent Right ascension
Unknown
Apparent Declination
Unknown
Sunlit
N/A
Visualization observer readout
Local Sidereal Time
21:41:41
Azimuth
Unknown
Elevation
Unknown
Doppler factor
Unknown
Orbital elements
Apogee altitude
37,362.965 km
Perigee altitude
35,318.775 km
Semi-major axis
42,719.007 km
Eccentricity
0.02393
Inclination
8.3438°
RAAN
302.8983°
Arg. of periapsis
107.1248°
True anomaly
288.25841°
Mean anomaly
290.8473°
Eccentric anomaly
289.55552°
Mean motion
0.24582 °/min
Orbital period
1,464.51 mins
BSTAR
0
Loading maneuver chart data...
Computing Atmospheric mass density...
Loading historical data...
Loading historical data...
Loading historical data...
Loading historical data...
Loading historical data...
Loading historical data...
Loading historical data...

Documentation

Showing up to 5 results
|